GW5678 Weather Reports


time (UTC)temp
C
wind
direction
speed
KPH
gust
KPH
rain 1hr
cm
rain 24hr
cm
rain mn
cm
humidity
%
barometer
mb
20260510093615 3 81 0.0 3.2 0.00 0.00 0.00 96 1013.0
20260510093112 3 64 3.2 4.8 0.00 0.00 0.00 96 1013.2
20260510092609 3 77 3.2 4.8 0.00 0.00 0.00 96 1013.1
20260510092108 3 107 4.8 6.4 0.00 0.00 0.00 96 1012.9
20260510091606 3 79 3.2 4.8 0.00 0.00 0.00 96 1013.0
20260510091101 3 64 3.2 4.8 0.00 0.00 0.00 96 1013.1
20260510090559 3 100 0.0 3.2 0.00 0.00 0.00 96 1013.0
20260510090054 3 106 3.2 6.4 0.00 0.00 0.00 96 1012.8
20260510085549 3 59 3.2 4.8 0.00 0.00 0.00 96 1012.9
20260510085046 3 88 3.2 4.8 0.00 0.00 0.00 96 1012.9
20260510084542 3 95 3.2 4.8 0.00 0.00 0.00 96 1012.7
20260510084039 3 89 3.2 4.8 0.00 0.00 0.00 96 1012.8
20260510083536 3 65 3.2 4.8 0.00 0.00 0.00 96 1012.7
20260510083032 3 113 0.0 3.2 0.00 0.00 0.00 96 1012.9
20260510082529 3 110 3.2 3.2 0.00 0.00 0.00 95 1012.9
20260510082024 3 86 3.2 4.8 0.00 0.00 0.00 95 1012.9
20260510081519 3 98 3.2 4.8 0.00 0.00 0.00 95 1012.6
20260510081015 3 87 3.2 4.8 0.00 0.00 0.00 95 1012.8
20260510080514 3 92 3.2 3.2 0.00 0.00 0.00 95 1012.5
20260510080012 3 115 1.6 3.2 0.00 0.00 0.00 95 1012.8
20260510075509 3 89 0.0 3.2 0.00 0.00 0.00 95 1012.8
20260510075006 3 52 4.8 6.4 0.00 0.00 0.00 95 1012.5
20260510074504 3 101 3.2 3.2 0.00 0.00 0.00 95 1012.5
20260510073959 4 89 4.8 6.4 0.00 0.00 0.00 95 1012.6
20260510073454 4 79 3.2 3.2 0.00 0.00 0.00 95 1012.4
20260510072951 4 63 3.2 3.2 0.00 0.00 0.00 95 1012.5
20260510072448 4 38 0.0 1.6 0.00 0.00 0.00 95 1012.4
20260510071944 4 104 0.0 3.2 0.00 0.00 0.00 95 1012.6
20260510071440 4 81 3.2 4.8 0.00 0.00 0.00 94 1012.5
20260510070938 3 71 4.8 4.8 0.00 0.00 0.00 94 1012.6
20260510070436 4 102 6.4 6.4 0.00 0.00 0.00 94 1012.4
20260510065931 4 109 4.8 4.8 0.00 0.00 0.00 94 1012.2
20260510065428 4 69 3.2 3.2 0.00 0.00 0.00 94 1012.2
20260510064924 5 88 1.6 3.2 0.00 0.00 0.00 94 1012.2
20260510064422 5 84 3.2 6.4 0.00 0.00 0.00 94 1012.0
20260510063918 5 117 3.2 6.4 0.00 0.00 0.00 94 1012.2
20260510063414 5 109 1.6 3.2 0.00 0.00 0.00 94 1012.2
20260510062913 5 89 3.2 6.4 0.00 0.00 0.00 94 1012.4
20260510062407 5 89 1.6 3.2 0.00 0.00 0.00 94 1012.4
20260510061903 5 150 0.0 3.2 0.00 0.00 0.00 93 1012.1
20260510061400 5 84 1.6 4.8 0.00 0.00 0.00 93 1012.3
20260510060855 5 69 1.6 3.2 0.00 0.00 0.00 93 1012.4
20260510060353 5 75 3.2 4.8 0.00 0.00 0.00 92 1012.3
20260510055849 5 91 3.2 3.2 0.00 0.00 0.00 91 1012.2
20260510055349 5 102 3.2 6.4 0.00 0.00 0.00 91 1012.0
20260510054848 5 70 3.2 4.8 0.00 0.00 0.00 91 1012.0
20260510054344 5 100 3.2 3.2 0.00 0.00 0.00 91 1011.9
20260510053839 5 95 3.2 3.2 0.00 0.00 0.00 91 1012.4
20260510053334 5 65 4.8 6.4 0.00 0.00 0.00 91 1012.1
20260510052831 5 87 3.2 4.8 0.00 0.00 0.00 90 1012.2
20260510052327 6 93 4.8 4.8 0.00 0.00 0.00 90 1012.1
20260510051823 6 92 4.8 6.4 0.00 0.00 0.00 90 1012.0
20260510051320 6 82 0.0 3.2 0.00 0.00 0.00 91 1012.1
20260510050817 6 62 1.6 1.6 0.00 0.00 0.00 91 1012.2
20260510050314 6 76 3.2 3.2 0.00 0.00 0.00 90 1012.3
20260510045811 6 76 0.0 1.6 0.00 0.00 0.00 90 1012.2
20260510045308 6 114 0.0 3.2 0.00 0.00 0.00 89 1012.5
20260510044805 6 74 3.2 3.2 0.00 0.00 0.00 89 1012.3
20260510044302 6 73 1.6 3.2 0.00 0.00 0.00 89 1012.4
20260510043758 6 66 3.2 4.8 0.00 0.00 0.00 88 1012.4
20260510043254 6 78 1.6 3.2 0.00 0.00 0.00 87 1012.3
20260510042752 6 86 3.2 3.2 0.00 0.00 0.00 87 1012.3
20260510042247 7 105 1.6 4.8 0.00 0.00 0.00 87 1012.3
20260510041739 7 106 4.8 4.8 0.00 0.00 0.00 86 1012.3
20260510041236 7 120 4.8 6.4 0.00 0.00 0.00 86 1012.5
20260510040733 7 85 3.2 4.8 0.00 0.00 0.00 86 1012.1
20260510040230 7 106 1.6 3.2 0.00 0.00 0.00 85 1012.3
20260510035724 7 92 3.2 4.8 0.00 0.00 0.00 84 1012.3
20260510035221 7 103 4.8 4.8 0.00 0.00 0.00 83 1012.2
20260510034717 8 89 3.2 4.8 0.00 0.00 0.00 82 1012.1
20260510034215 8 97 1.6 4.8 0.00 0.00 0.00 82 1012.3
20260510033710 8 59 3.2 4.8 0.00 0.00 0.00 82 1012.3
20260510033209 8 315 0.0 3.2 0.00 0.00 0.00 82 1012.5
20260510032705 8 266 0.0 3.2 0.00 0.00 0.00 82 1012.3
20260510032200 8 46 3.2 3.2 0.00 0.00 0.00 82 1012.5
20260510031655 8 61 0.0 3.2 0.00 0.00 0.00 81 1012.3
20260510031152 9 66 1.6 3.2 0.00 0.00 0.00 80 1012.2
20260510030647 9 92 1.6 3.2 0.00 0.00 0.00 80 1012.2
20260510030145 9 235 0.0 0.0 0.00 0.00 0.00 80 1012.3
20260510025642 9 80 1.6 3.2 0.00 0.00 0.00 78 1012.1
20260510025139 9 79 1.6 3.2 0.00 0.00 0.00 78 1012.2
20260510024636 10 81 0.0 3.2 0.00 0.00 0.00 77 1011.9
20260510024132 10 95 0.0 3.2 0.00 0.00 0.00 75 1011.9
20260510023627 10 86 3.2 4.8 0.00 0.00 0.00 74 1011.7
20260510023125 10 71 3.2 4.8 0.00 0.00 0.00 73 1011.7
20260510022626 10 34 0.0 0.0 0.00 0.00 0.00 74 1011.7
20260510022120 10 135 0.0 3.2 0.00 0.00 0.00 75 1011.5
20260510021616 10 23 3.2 4.8 0.00 0.00 0.00 75 1011.2
20260510021114 10 58 3.2 4.8 0.00 0.00 0.00 74 1011.4
20260510020608 10 25 4.8 4.8 0.00 0.00 0.00 73 1011.2
20260510020103 11 83 3.2 4.8 0.00 0.00 0.00 71 1011.1
20260510015600 11 107 3.2 4.8 0.00 0.00 0.00 70 1010.9
20260510015056 11 66 0.0 0.0 0.00 0.00 0.00 70 1011.0
20260510014552 11 99 1.6 3.2 0.00 0.00 0.00 67 1011.0
20260510014049 12 84 1.6 3.2 0.00 0.00 0.00 65 1010.7
20260510013543 12 86 1.6 3.2 0.00 0.00 0.00 64 1010.7
20260510013039 13 105 3.2 4.8 0.00 0.00 0.00 62 1010.6
20260510012534 13 269 0.0 1.6 0.00 0.00 0.00 62 1010.3
20260510012031 13 136 1.6 3.2 0.00 0.00 0.00 60 1010.6
20260510011530 13 212 0.0 0.0 0.00 0.00 0.00 58 1010.2
20260510011026 14 63 4.8 6.4 0.00 0.00 0.00 59 1010.2
20260510010523 14 28 3.2 4.8 0.00 0.00 0.00 57 1010.1
20260510010020 15 81 3.2 4.8 0.00 0.00 0.00 55 1010.2
20260510005516 16 97 0.0 3.2 0.00 0.00 0.00 52 1010.2
20260510005014 16 269 0.0 1.6 0.00 0.00 0.00 49 1009.9
20260510004511 16 41 0.0 3.2 0.00 0.00 0.00 47 1009.9
20260510004009 16 43 3.2 3.2 0.00 0.00 0.00 47 1009.7
20260510003505 16 103 0.0 1.6 0.00 0.00 0.00 47 1009.8
20260510003000 17 96 3.2 3.2 0.00 0.00 0.00 46 1009.6
20260510002457 17 84 3.2 4.8 0.00 0.00 0.00 45 1009.4
20260510001953 18 89 4.8 6.4 0.00 0.00 0.00 44 1009.5
20260510001451 18 105 12.9 14.5 0.00 0.00 0.00 41 1009.3
20260510000948 19 110 9.7 11.3 0.00 0.00 0.00 41 1009.2
20260510000444 19 118 6.4 14.5 0.00 0.00 0.00 40 1008.9
20260509235941 20 102 9.7 17.7 0.00 0.00 0.00 39 1008.9
20260509235438 20 104 14.5 20.9 0.00 0.00 0.00 38 1009.1
20260509234934 20 112 12.9 19.3 0.00 0.00 0.00 38 1008.8
20260509234431 21 97 8.0 16.1 0.00 0.00 0.00 39 1008.7
20260509233929 21 85 11.3 14.5 0.00 0.00 0.00 38 1008.7
20260509233426 21 118 17.7 24.1 0.00 0.00 0.00 36 1008.6
20260509232922 22 81 9.7 11.3 0.00 0.00 0.00 40 1008.5
20260509232420 22 78 9.7 11.3 0.00 0.00 0.00 41 1008.8
20260509231915 22 105 8.0 16.1 0.00 0.00 0.00 40 1008.7
20260509231412 22 105 11.3 25.7 0.00 0.00 0.00 38 1008.7
20260509230911 22 95 14.5 24.1 0.00 0.00 0.00 39 1008.5
20260509230407 21 119 11.3 22.5 0.00 0.00 0.00 40 1008.8
20260509225903 21 123 11.3 17.7 0.00 0.00 0.00 41 1008.6
20260509225400 22 120 17.7 22.5 0.00 0.00 0.00 39 1008.7
20260509224855 22 99 16.1 27.4 0.00 0.00 0.00 38 1008.8
20260509224351 22 109 19.3 30.6 0.00 0.00 0.00 37 1008.6
20260509223849 22 105 17.7 29.0 0.00 0.00 0.00 38 1008.7
20260509223345 22 109 16.1 25.7 0.00 0.00 0.00 38 1008.6
20260509222843 22 105 9.7 16.1 0.00 0.00 0.00 41 1008.6
20260509222342 21 89 12.9 14.5 0.00 0.00 0.00 42 1008.6
20260509221838 21 94 11.3 17.7 0.00 0.00 0.00 42 1008.6
20260509221337 21 98 9.7 17.7 0.00 0.00 0.00 42 1008.7
20260509220836 21 80 14.5 22.5 0.00 0.00 0.00 40 1008.7
20260509220333 21 102 11.3 20.9 0.00 0.00 0.00 41 1008.5
20260509215829 21 87 14.5 17.7 0.00 0.00 0.00 41 1008.5
20260509215326 21 99 14.5 19.3 0.00 0.00 0.00 39 1008.3
20260509214822 21 77 17.7 19.3 0.00 0.00 0.00 42 1008.3
20260509214319 22 129 12.9 25.7 0.00 0.00 0.00 42 1008.6
20260509213816 22 116 11.3 17.7 0.00 0.00 0.00 42 1008.6
20260509213312 22 89 8.0 17.7 0.00 0.00 0.00 42 1008.4
20260509212810 22 83 14.5 19.3 0.00 0.00 0.00 42 1008.4
20260509212307 22 97 6.4 14.5 0.00 0.00 0.00 44 1008.4
20260509211802 21 78 9.7 19.3 0.00 0.00 0.00 44 1008.3
20260509211259 21 359 4.8 20.9 0.00 0.00 0.00 44 1008.1
20260509210755 21 106 14.5 19.3 0.00 0.00 0.00 44 1008.2
20260509210253 21 81 11.3 25.7 0.00 0.00 0.00 43 1008.2
20260509205753 21 105 14.5 19.3 0.00 0.00 0.00 43 1008.2
20260509205247 21 74 12.9 19.3 0.00 0.00 0.00 43 1008.3
20260509204743 21 97 11.3 24.1 0.00 0.00 0.00 43 1008.2
20260509204240 22 96 11.3 27.4 0.00 0.00 0.00 43 1008.2
20260509203736 22 92 12.9 25.7 0.00 0.00 0.00 39 1008.2
20260509203234 23 112 20.9 29.0 0.00 0.00 0.00 39 1008.0
20260509202730 23 94 19.3 24.1 0.00 0.00 0.00 41 1008.1
20260509202226 23 93 17.7 22.5 0.00 0.00 0.00 40 1007.9
20260509201720 22 48 9.7 17.7 0.00 0.00 0.00 40 1007.9
20260509201218 21 80 14.5 17.7 0.00 0.00 0.00 46 1008.0
20260509200715 21 81 6.4 16.1 0.00 0.00 0.00 44 1007.9
20260509200215 21 106 9.7 14.5 0.00 0.00 0.00 45 1008.1
20260509195711 21 102 8.0 8.0 0.00 0.00 0.00 46 1007.9
20260509195206 22 98 6.4 11.3 0.00 0.00 0.00 43 1008.1
20260509194701 22 44 4.8 12.9 0.00 0.00 0.00 40 1008.1
20260509194158 22 99 4.8 12.9 0.00 0.00 0.00 46 1008.2
20260509193654 22 121 6.4 14.5 0.00 0.00 0.00 45 1008.2
20260509193150 22 48 12.9 17.7 0.00 0.00 0.00 42 1008.2
20260509192646 22 78 16.1 22.5 0.00 0.00 0.00 43 1008.3
20260509192141 22 51 19.3 25.7 0.00 0.00 0.00 44 1008.4
20260509191641 22 102 6.4 20.9 0.00 0.00 0.00 43 1008.4
20260509191139 21 88 14.5 24.1 0.00 0.00 0.00 43 1008.5
20260509190635 22 118 16.1 29.0 0.00 0.00 0.00 41 1008.6
20260509190132 21 39 14.5 25.7 0.00 0.00 0.00 44 1008.6
20260509185630 22 45 9.7 17.7 0.00 0.00 0.00 42 1008.7
20260509185125 22 47 9.7 24.1 0.00 0.00 0.00 43 1008.6
20260509184623 22 40 4.8 8.0 0.00 0.00 0.00 41 1008.5
20260509184120 22 59 14.5 16.1 0.00 0.00 0.00 42 1008.7
20260509183616 21 86 9.7 14.5 0.00 0.00 0.00 50 1008.8
20260509183111 21 72 14.5 20.9 0.00 0.00 0.00 44 1008.9
20260509182608 21 42 9.7 19.3 0.00 0.00 0.00 42 1008.9
20260509182105 21 72 9.7 17.7 0.00 0.00 0.00 44 1009.1
20260509181603 21 93 12.9 16.1 0.00 0.00 0.00 46 1009.2
20260509181100 21 89 11.3 25.7 0.00 0.00 0.00 43 1009.2
20260509180555 22 32 9.7 16.1 0.00 0.00 0.00 41 1009.1
20260509180053 21 98 16.1 20.9 0.00 0.00 0.00 44 1008.9
20260509175548 22 63 17.7 24.1 0.00 0.00 0.00 44 1009.1
20260509175046 21 49 8.0 12.9 0.00 0.00 0.00 42 1008.8
20260509174542 22 87 14.5 20.9 0.00 0.00 0.00 43 1009.1
20260509174037 21 54 9.7 19.3 0.00 0.00 0.00 43 1008.9
20260509173532 21 63 9.7 14.5 0.00 0.00 0.00 46 1009.1
20260509173029 20 88 9.7 16.1 0.00 0.00 0.00 45 1009.3
20260509172526 20 49 8.0 19.3 0.00 0.00 0.00 46 1009.4
20260509172021 20 85 14.5 22.5 0.00 0.00 0.00 46 1009.4
20260509171518 20 68 11.3 20.9 0.00 0.00 0.00 45 1009.4
20260509171015 20 62 9.7 9.7 0.00 0.00 0.00 44 1009.6
20260509170510 21 114 12.9 20.9 0.00 0.00 0.00 46 1009.7
20260509170006 21 85 17.7 25.7 0.00 0.00 0.00 44 1009.6
20260509165504 21 51 14.5 25.7 0.00 0.00 0.00 42 1009.7
20260509165000 21 58 14.5 27.4 0.00 0.00 0.00 44 1009.8
20260509164457 21 94 11.3 25.7 0.00 0.00 0.00 44 1009.8
20260509163952 21 36 6.4 25.7 0.00 0.00 0.00 45 1009.7
20260509163450 20 54 8.0 24.1 0.00 0.00 0.00 49 1009.4
20260509162949 20 87 9.7 16.1 0.00 0.00 0.00 49 1009.6
20260509162448 20 60 17.7 27.4 0.00 0.00 0.00 45 1009.7
20260509161944 20 92 14.5 30.6 0.00 0.00 0.00 52 1009.8
20260509161440 19 67 12.9 24.1 0.00 0.00 0.00 48 1010.0
20260509160935 19 123 11.3 16.1 0.00 0.00 0.00 50 1009.9
20260509160432 18 50 9.7 22.5 0.00 0.00 0.00 48 1009.9
20260509155927 19 59 17.7 22.5 0.00 0.00 0.00 51 1010.0
20260509155424 18 73 9.7 17.7 0.00 0.00 0.00 51 1009.8
20260509154920 18 116 16.1 22.5 0.00 0.00 0.00 53 1009.7
20260509154417 19 77 9.7 19.3 0.00 0.00 0.00 52 1010.0
20260509153914 19 95 8.0 11.3 0.00 0.00 0.00 53 1010.0
20260509153411 19 45 9.7 12.9 0.00 0.00 0.00 52 1010.1
20260509152908 18 51 6.4 17.7 0.00 0.00 0.00 51 1010.1
20260509152403 18 83 12.9 20.9 0.00 0.00 0.00 53 1010.1
20260509151901 18 67 8.0 17.7 0.00 0.00 0.00 53 1010.2
20260509151356 20 61 14.5 20.9 0.00 0.00 0.00 50 1010.1
20260509150855 20 75 14.5 20.9 0.00 0.00 0.00 53 1010.0
20260509150353 19 60 11.3 12.9 0.00 0.00 0.00 53 1010.2
20260509145850 18 69 8.0 17.7 0.00 0.00 0.00 52 1010.2
20260509145350 18 61 9.7 20.9 0.00 0.00 0.00 54 1010.4
20260509144846 18 73 9.7 16.1 0.00 0.00 0.00 58 1010.4
20260509144343 17 70 9.7 14.5 0.00 0.00 0.00 56 1010.1
20260509143840 17 83 12.9 17.7 0.00 0.00 0.00 56 1010.3
20260509143338 17 101 6.4 16.1 0.00 0.00 0.00 56 1010.5
20260509142834 17 100 8.0 14.5 0.00 0.00 0.00 59 1010.1
20260509142330 17 140 6.4 6.4 0.00 0.00 0.00 59 1010.1
20260509141826 16 101 4.8 8.0 0.00 0.00 0.00 59 1010.1
20260509141327 16 120 6.4 9.7 0.00 0.00 0.00 58 1010.3
20260509140819 16 82 6.4 8.0 0.00 0.00 0.00 59 1010.2
20260509140317 16 134 8.0 8.0 0.00 0.00 0.00 61 1010.3
20260509135815 15 30 3.2 4.8 0.00 0.00 0.00 63 1010.2
20260509135312 15 94 4.8 6.4 0.00 0.00 0.00 64 1010.7
20260509134809 14 136 0.0 3.2 0.00 0.00 0.00 66 1010.4
20260509134306 14 110 0.0 3.2 0.00 0.00 0.00 64 1010.5
20260509133803 15 224 0.0 3.2 0.00 0.00 0.00 66 1010.7
20260509133259 14 92 0.0 3.2 0.00 0.00 0.00 67 1010.9
20260509132758 13 93 6.4 6.4 0.00 0.00 0.00 70 1011.1
20260509132257 12 75 1.6 3.2 0.00 0.00 0.00 71 1011.0
20260509131753 12 153 1.6 4.8 0.00 0.00 0.00 71 1011.1
20260509131250 11 166 3.2 3.2 0.00 0.00 0.00 73 1011.1
20260509130746 11 89 0.0 3.2 0.00 0.00 0.00 76 1011.4
20260509130242 11 135 0.0 3.2 0.00 0.00 0.00 80 1011.6
20260509125738 10 59 4.8 6.4 0.00 0.00 0.00 82 1011.5
20260509125236 10 82 1.6 3.2 0.00 0.00 0.00 84 1011.7
20260509124732 10 98 3.2 3.2 0.00 0.00 0.00 85 1011.6
20260509124228 9 107 3.2 4.8 0.00 0.00 0.00 86 1011.6
20260509123727 8 92 3.2 4.8 0.00 0.00 0.00 87 1011.7
20260509123224 8 112 3.2 4.8 0.00 0.00 0.00 88 1011.8
20260509122719 8 101 3.2 4.8 0.00 0.00 0.00 89 1011.8
20260509122216 8 114 3.2 4.8 0.00 0.00 0.00 91 1011.7
20260509121713 8 99 3.2 4.8 0.00 0.00 0.00 92 1011.8
20260509121211 7 107 3.2 4.8 0.00 0.00 0.00 93 1011.6
20260509120709 7 95 1.6 3.2 0.00 0.00 0.00 94 1011.5
20260509120206 7 107 3.2 4.8 0.00 0.00 0.00 95 1011.7
20260509115704 7 107 3.2 4.8 0.00 0.00 0.00 96 1011.7
20260509115201 6 97 3.2 3.2 0.00 0.00 0.00 96 1011.8
20260509114659 6 104 3.2 4.8 0.00 0.00 0.00 96 1011.7
20260509114158 6 95 3.2 4.8 0.00 0.00 0.00 97 1011.7
20260509113656 5 107 4.8 4.8 0.00 0.00 0.00 97 1011.6
20260509113152 5 94 3.2 4.8 0.00 0.00 0.00 97 1011.5
20260509112649 5 99 3.2 4.8 0.00 0.00 0.00 97 1011.4
20260509112146 5 93 3.2 3.2 0.00 0.00 0.00 97 1011.5
20260509111643 5 97 3.2 4.8 0.00 0.00 0.00 96 1011.5
20260509111140 5 93 3.2 4.8 0.00 0.00 0.00 96 1011.5
20260509110637 4 92 3.2 4.8 0.00 0.00 0.00 96 1011.4
20260509110134 4 103 3.2 3.2 0.00 0.00 0.00 96 1011.5
20260509105632 4 92 3.2 4.8 0.00 0.00 0.00 96 1011.4
20260509105130 3 73 4.8 6.4 0.00 0.00 0.00 96 1011.2
20260509104627 3 82 4.8 6.4 0.00 0.00 0.00 96 1011.2
20260509104123 3 102 3.2 4.8 0.00 0.00 0.00 96 1011.0
20260509103621 3 120 4.8 6.4 0.00 0.00 0.00 96 1011.1
20260509103119 3 105 4.8 4.8 0.00 0.00 0.00 95 1011.2
20260509102616 3 115 4.8 4.8 0.00 0.00 0.00 95 1011.1
20260509102113 3 104 4.8 4.8 0.00 0.00 0.00 95 1011.5
20260509101609 3 67 3.2 4.8 0.00 0.00 0.00 95 1011.4
20260509101106 3 72 3.2 4.8 0.00 0.00 0.00 95 1011.5
20260509100603 3 93 3.2 4.8 0.00 0.00 0.00 96 1011.2
20260509100101 3 97 3.2 4.8 0.00 0.00 0.00 96 1011.5
20260509095557 3 79 3.2 4.8 0.00 0.00 0.00 95 1011.4
20260509095055 3 98 3.2 3.2 0.00 0.00 0.00 95 1011.4
20260509094550 3 76 1.6 3.2 0.00 0.00 0.00 95 1011.4
20260509094048 3 110 3.2 4.8 0.00 0.00 0.00 95 1011.4